Regional Weather Roundup
Issued by NWS

Home | Current Version | Previous Version | Text Only | Print | Product List | Glossary On
Versions: 1 2 3 4 5 6 7 8 9 10 11 12 13 14 15 16 17 18 19 20 21 22 23 24 25 26 27 28 29 30 31 32 33 34 35 36 37 38 39 40 41 42 43 44 45 46 47 48 49 50
716
ASUS45 KBOU 232207
RWRCO

WEATHER ROUNDUP FOR COLORADO
NATIONAL WEATHER SERVICE DENVER/BOULDER CO
300 PM MST MON JAN 23 2017

NOTE: "FAIR" INDICATES FEW OR NO CLOUDS BELOW 12000 FEET WITH NO
SIGNIFICANT WEATHER AND/OR OBSTRUCTIONS TO VISIBILITY.

COZ001>005-013-030-031-232300-
...NORTHWEST COLORADO...

CITY           SKY/WX    TMP DP  RH WIND       PRES   REMARKS
CRAIG          CLOUDY    40  24  53 SW16G26   29.48F
HAYDEN         FAIR      37  21  52 SW12G23   29.49F
MEEKER         FAIR      39  27  62 SW25G35   29.47F
MOUNT WERNER   NOT AVBL
STEAMBOAT SPGS CLOUDY    35  25  67 CALM      29.50F
WALDEN           N/A     28  21  74 E8        29.54S WCI  20
$$

COZ006>008-011-232300-
...WEST CENTRAL VALLEYS...

CITY           SKY/WX    TMP DP  RH WIND       PRES   REMARKS
GRAND JUNCTION CLOUDY    47  29  49 SW17G24   29.52R
MONTROSE       CLOUDY    46  25  43 SW29G45   29.58F
EAGLE          NOT AVBL
RIFLE          LGT RAIN  41  31  67 W14       29.52F
DELTA          FAIR      49  33  53 S24G33    29.58S
NUCLA          CLOUDY    41  30  65 SW23G32   29.61F
$$

COZ017>023-064>068-232300-
...SOUTHWEST COLORADO...

CITY           SKY/WX    TMP DP  RH WIND       PRES   REMARKS
DURANGO        HVY SNOW  31  27  85 SE5       29.71F VSB 1/4 WCI  26
CORTEZ         FAIR      40  33  76 SW13      29.67F
PAGOSA SPRINGS SNOW      31  29  94 CALM      29.71F VSB 1/2
TELLURIDE      SNOW      29  26  87 SW6G20    29.66R VSB 1/2 WCI  23
WOLF CREEK PAS CLOUDY    18  18 100 SW26G48   29.64F WCI  -1
$$

COZ009-010-012-014-032>034-037-058>063-232300-
...CENTRAL COLORADO...

CITY           SKY/WX    TMP DP  RH WIND       PRES   REMARKS
ASPEN          LGT SNOW  30  28  92 SE7       29.55S FOG     WCI  23
BUENA VISTA    FLURRIES  31  24  74 SE9       29.58S WCI  23
COPPER MTN     LGT SNOW  23  12  63 MISG      29.57F
BERTHOUD PASS  CLOUDY    14   3  62 MISG      29.57S
COTTONWOOD PAS LGT SNOW  30  25  80 SE10      29.58S WCI  21
GUNNISON       PTSUNNY   33  21  61 NE12      29.58F WCI  24
KREMMLING      FAIR      41  28  60 W13G24    29.55F
LEADVILLE      SNOW      23  19  85 VRB7      29.55F VSB 1/2 WCI  15
MONARCH PASS   CLOUDY    19  16  86 SW20G37   29.67F WCI   4
SALIDA         CLOUDY    37  26  62 S14G21    29.65F
SUNLIGHT         N/A     19  19 100 SW23G39   29.55R WCI   2
WILKERSON PASS CLOUDY   N/A N/A N/A SW3       29.62S FOG
$$

COZ069>075-232300-
...SAN LUIS VALLEY/SANGRE DE CRISTO MOUNTAINS...

CITY           SKY/WX    TMP DP  RH WIND       PRES   REMARKS
ALAMOSA        CLOUDY    38  24  57 SW24G35   29.66F
LA VETA PASS   CLOUDY    27  21  80 NE28G47   29.61F WCI  11
SAGUACHE       CLOUDY    32  23  69 N8        29.63F WCI  25
$$

COZ035-036-038>040-232300-
...NORTHERN COLORADO FRONT RANGE...

CITY           SKY/WX    TMP DP  RH WIND       PRES   REMARKS
DENVER INTL AP PTSUNNY   51  22  31 W12       29.51R
DMNS CITY PARK   N/A     51  21  30 SW10G17   29.50S
AURORA         PTSUNNY   50  21  32 W13       29.50F
FRONT RANGE AP PTSUNNY   54  23  30 SW14G25   29.51S
ERIE MUNI ARPT PTSUNNY   51  20  29 W8        29.49F
BOULDER MUN AP CLOUDY    50  23  34 W8        29.49F
CENTENNIAL     PTSUNNY   50  22  33 SW18G29   29.50F
BROOMFIELD     PTSUNNY   50  19  29 SW5       29.52S
FORT COLLINS   NOT AVBL
LONGMONT       CLOUDY    51  25  36 CALM      29.52R
$$

COZ041-046-047-076>085-087-088-232300-
...PIKES PEAK/PALMER DIVIDE AND SOUTHERN FOOTHILLS...

CITY           SKY/WX    TMP DP  RH WIND       PRES   REMARKS
COLO. SPRINGS  PTSUNNY   49  16  26 S12       29.56F
A. F. ACADEMY  FAIR      45  19  35 S17G24    29.55R
SCHRIEVER AFB  FAIR      48  16  27 S13G29    29.56F
ELLICOTT       FAIR     N/A N/A N/A SW22G29   29.55F
FALCON         PTSUNNY   45  16  31 S17G23    29.58S
FORT CARSON    NOT AVBL
LIMON          FAIR      53  18  25 SW23G33   29.52S
MONUMENT HILL  PTSUNNY   45  18  33 S15       29.56R
TRINIDAD       FAIR      46  24  42 SW26G40   29.63F
$$

COZ042>045-048>051-090-091-232300-
...NORTHEAST COLORADO...

CITY           SKY/WX    TMP DP  RH WIND       PRES   REMARKS
GREELEY ARPT   PTSUNNY   50  27  40 SE12      29.52S
AKRON          FAIR      47  21  35 E8        29.53S
BURLINGTON     FAIR      56  30  37 E9        29.53F
WRAY           FAIR      52  27  37 CALM      29.55F
STERLING       FAIR      45  27  49 E3        29.53S
HOLYOKE        FAIR      46  30  53 SE7       29.56S
FORT MORGAN    FAIR      45  27  50 NE8       29.53S
$$

COZ086-089-092>099-232300-
...SOUTHEAST COLORADO...

CITY           SKY/WX    TMP DP  RH WIND       PRES   REMARKS
PUEBLO         FAIR      57  24  28 SW23G29   29.54F
LA JUNTA       FAIR      56  29  35 W21G29    29.57F
LAMAR          FAIR      61  30  31 SW20G29   29.55S
SPRINGFIELD      N/A     62  20  19 SW21G38   29.59F
$$




USA.gov is the U.S. government's official web portal to all federal, state and local government web resources and services.